100P/Hartley 1 (2022)

Japanese version
Home page
Updated on August 14, 2022

---------------------------------------------------------------------

* Profile

* Pictures

* Orbital Elements

Epoch 2022 Jan. 21.0 TT = JDT 2459600.5
T 2022 Aug. 10.96434 TT                                 Rudenko
q   2.0175751            (2000.0)            P               Q
n   0.15497205     Peri.  181.97622     -0.77184080     +0.57849329
a   3.4326838      Node    37.68994     -0.57727045     -0.46366882
e   0.4122456      Incl.   25.56466     -0.26649692     -0.67108623
P   6.36
From 291 observations 2003 Jan. 24-2022 Feb. 15, mean residual 0".7.
     Nongravitational parameters A1 = +0.16, A2 = -0.0118.

* Magnitudes Graph

        m1 = 3.5 + 5 log d + 40 log r

---------------------------------------------------------------------

The orbital elements are published on M.P.E.C. 2022-D36.
The magnitudes graphs are made with Comet for Windows.

---------------------------------------------------------------------

Copyright(C) Seiichi Yoshida (comet@aerith.net). All rights reserved.